This demonstration page uses our WeatherBlox Daily Observations layout. Learn more.

Left ArrowRight Arrow

44.89941, -97.11507

Hourly Observations for January 31, 2021

Temp ( °F °C ) Dew Point ( °F °C ) Humidity (%) Winds ( mph kmh ) Pressure ( in mb ) Visibility ( mi km ) Precip ( " mm )
12:10 am 00:10 Cloudy with Mist and Fog 23 -5 22 -5.6 96 96 NNW 13 20 30.18 1022 2 3 0.00 0.00
12:35 am 00:35 Cloudy with Mist and Fog 23 -5 22 -5.6 96 96 NNW 14 22 30.19 1022 3 4 0.00 0.00
12:53 am 00:53 Cloudy with Mist and Fog 23 -5 22 -5.6 96 96 NNW 13 20 30.15 1021 3 4 0.00 0.00
1:06 am 01:06 Cloudy with Mist and Fog 23 -5 22 -5.6 96 96 NNW 13 20 30.20 1023 3 5 0.00 0.00
1:53 am 01:53 Cloudy with Mist and Fog 24 -4.4 22 -5.6 91 91 NNW 13 20 30.16 1022 3 5 0.00 0.00
2:42 am 02:42 Cloudy with Mist and Fog 23 -5 21 -6.1 92 92 NNW 15 24 30.23 1024 4 6 0.00 0.00
2:53 am 02:53 Cloudy with Mist and Fog 23 -5 21 -6.1 92 92 NNW 14 22 30.19 1022 5 8 0.00 0.00
3:22 am 03:22 Cloudy with Mist and Fog 23 -5 21 -6.1 92 92 NNW 13 20 30.24 1024 5 8 0.00 0.00
3:53 am 03:53 Cloudy with Mist and Fog 23 -5 21 -6.1 92 92 NNW 12 19 30.21 1023 4 6 0.00 0.00
4:17 am 04:17 Cloudy with Mist and Fog 23 -5 21 -6.1 92 92 NNW 12 19 30.26 1025 5 8 0.00 0.00
4:53 am 04:53 Cloudy with Mist and Fog 23 -5 21 -6.1 92 92 NNW 13 20 30.24 1024 6 10 0.00 0.00
5:28 am 05:28 Cloudy with Mist and Fog 23 -5 20 -6.7 88 88 NNW 17 28 30.29 1026 6 10 0.00 0.00
5:53 am 05:53 Cloudy with Mist and Fog 22 -5.6 20 -6.7 92 92 NNW 16 26 30.25 1025 6 10 0.00 0.00
6:53 am 06:53 Cloudy with Mist and Fog 22 -5.6 19 -7.2 89 89 NNW 16 26 30.28 1025 6 10 0.00 0.00
7:53 am 07:53 Cloudy 21 -6.1 19 -7.2 92 92 N 9 15 30.30 1026 7 11 0.00 0.00
8:02 am 08:02 Cloudy 21 -6.1 19 -7.2 92 92 N 8 13 30.35 1028 7 11 0.00 0.00
8:05 am 08:05 Cloudy with Mist and Fog 21 -6.1 19 -7.2 92 92 N 9 15 30.35 1028 6 10 0.00 0.00
8:43 am 08:43 Cloudy with Mist and Fog 22 -5.6 20 -6.7 92 92 NNW 10 17 30.35 1028 5 8 0.00 0.00
8:53 am 08:53 Cloudy with Mist and Fog 22 -5.6 20 -6.7 92 92 NNW 12 19 30.32 1027 5 8 0.00 0.00
9:53 am 09:53 Cloudy 23 -5 20 -6.7 88 88 NNW 13 20 30.32 1027 8 13 0.00 0.00
10:53 am 10:53 Cloudy 23 -5 21 -6.1 92 92 NW 14 22 30.36 1028 9 14 0.00 0.00
11:53 am 11:53 Cloudy with Mist and Fog 23 -5 21 -6.1 92 92 NW 13 20 30.37 1028 4 6 0.00 0.00
12:53 pm 12:53 Cloudy with Mist and Fog 23 -5 21 -6.1 92 92 WNW 12 19 30.35 1028 6 10 0.00 0.00
1:53 pm 13:53 Cloudy with Mist and Fog 23 -5 22 -5.6 96 96 NW 13 20 30.33 1027 4 6 0.00 0.00
2:53 pm 14:53 Cloudy with Mist and Fog 23 -5 21 -6.1 92 92 NW 10 17 30.35 1028 4 6 0.00 0.00
3:53 pm 15:53 Cloudy with Mist and Fog 23 -5 21 -6.1 92 92 NW 12 19 30.35 1028 4 6 0.00 0.00
4:53 pm 16:53 Cloudy with Mist and Fog 23 -5 21 -6.1 92 92 NNW 10 17 30.36 1028 4 6 0.00 0.00
5:53 pm 17:53 Cloudy 23 -5 20 -6.7 88 88 NW 14 22 30.39 1029 7 11 0.00 0.00
6:53 pm 18:53 Cloudy 22 -5.6 20 -6.7 92 92 NNW 15 24 30.40 1030 7 11 0.00 0.00
7:53 pm 19:53 Cloudy with Mist and Fog 22 -5.6 20 -6.7 92 92 N 10 17 30.40 1030 5 8 0.00 0.00
8:53 pm 20:53 Cloudy with Mist and Fog 21 -6.1 19 -7.2 92 92 N 14 22 30.41 1030 6 10 0.00 0.00
9:50 pm 21:50 Cloudy 21 -6 19 -7 93 93 NNW 6 9 30.46 1031 9 14 0.00 0.00
10:25 pm 22:25 Cloudy 21 -6.1 18 -7.8 88 88 N 3 6 30.46 1031 8 13 0.00 0.00
10:53 pm 22:53 Cloudy 21 -6.1 19 -7.2 92 92 N 5 7 30.42 1030 7 11 0.00 0.00
11:22 pm 23:22 Cloudy 21 -6.1 19 -7.2 92 92 NNW 3 6 30.46 1031 7 11 0.00 0.00
11:53 pm 23:53 Cloudy 21 -6.1 19 -7.2 92 92 NW 3 6 30.42 1030 7 11 0.00 0.00

Powered by AerisWeather